sat.trackr.live / text

‹ back to catalog

STARLINK-33622

NORAD 63066 · 2025-035Q

PAYLOAD ACTIVE UNKNOWN

§ Identity

Operator
Country
US
Launch date
2025-02-21
Launch site
AFETR
Launch vehicle
Mass (kg)
RCS (m²)

Purposes: comms

External: N2YO · Heavens-Above · Gunter

§ Orbital elements

Epoch: 2026-05-25T04:43:57.617760Z

Period
94.27 min
Inclination
43.0041°
Eccentricity
0.0001996
Mean motion
15.27592900 rev/d
Perigee alt
481.6 km
Apogee alt
484.4 km
Semi-major
6,861.1 km
B*
9.8103e-4
RAAN
74.7332°
Arg perigee
267.7821°
Mean anomaly
92.2802°
Rev number
7,143

§ Raw data

STARLINK-336221 63066U 25035Q   26145.19719465  .00026843  00000+0  98103-3 0  99922 63066  43.0041  74.7332 0001996 267.7821  92.2802 15.27592900 71437

JSON: /api/v1/satellites/63066 · /tle

For live sub-satellite position, see the globe view (requires WebGL).

§ Visibility from observer

Set your observer location to see the next 7 days of passes ≥ 10°. The values pass through the URL so the page stays shareable.

No JS? Fill the form by hand. The geolocation button needs JavaScript.